Hourly Data Report for January 13, 2018

All times are specified in Local Standard Time (LST). Add 1 hour to adjust for Daylight Saving Time where and when it is observed.

BARRIE-ORO
ONTARIO

44°29'00.000" N
79°33'00.000" W
289.00 m
6117700
71314
XBI

Download Data

Hourly Data (January 2018)
Hourly Data Report for January 13, 2018
Temp Definition
°C
Dew Point Temp Definition
°C
Rel Hum Definition
%
Wind Dir Definition
10's deg

Wind Spd Definition
km/h
Visibility Definition
km
Stn Press Definition
kPa
Hmdx Definition


Wind Chill Definition


Weather Definition


TIME
00:00 -14.7 -17.7 78 35 34   98.33   -26 LegendNANA
01:00 -14.9 -18.3 75 35 29   98.29   -26 LegendNANA
02:00 -15.6 -19.6 71 35 28   98.25   -26 LegendNANA
03:00 -16.1 -20.3 70 34 20   98.45   -26 LegendNANA
04:00 -16.6 -21.1 68 34 25   98.44   -27 LegendNANA
05:00 -17.2 -21.3 71 33 17   98.51   -26 LegendNANA
06:00 -17.8 -21.7 71 34 25   98.57   -29 LegendNANA
07:00 -18.2 -22.2 71 34 22   98.67   -29 LegendNANA
08:00 -18.7 -22.7 71 34 17   98.81   -28 LegendNANA
09:00 -19.1 -23.2 70 33 16   98.94   -28 LegendNANA
10:00 -18.9 -23.4 68 33 16   99.05   -28 LegendNANA
11:00 -18.5 -23.2 66 34 18   99.11   -28 LegendNANA
12:00 -17.9 -23.4 62 33 15   99.11   -26 LegendNANA
13:00 -17.3 -23.0 61 31 19   99.13   -27 LegendNANA
14:00 -16.5 -22.5 60 31 17   99.14   -25 LegendNANA
15:00 -16.2 -23.1 55 32 15   99.22   -24 LegendNANA
16:00 -16.0 -22.4 58 31 15   99.30   -24 LegendNANA
17:00 -16.8 -22.1 64 32 11   99.46   -24 LegendNANA
18:00 -17.5 -21.2 73 32 10   99.55   -24 LegendNANA
19:00 -17.9 -21.2 75 33 11   99.58   -25 LegendNANA
20:00 -18.7 -22.6 72 36 8   99.63   -25 LegendNANA
21:00 -19.2 -23.2 71 30 3   99.71   -22 LegendNANA
22:00 -19.7 -23.3 73 30 2   99.76   -21 LegendNANA
23:00 -20.9 -23.1 83 0 1   99.82   -22 LegendNANA

Notes on Data Quality.

Legend

  • E = Estimated
  • M = Missing
  • NA = Not Available
  • ‡ = Partner data that is not subject to review by the National Climate Archives
Date modified: